TimeMST,TemperatureF,Dew PointF,Humidity,Sea Level PressureIn,VisibilityMPH,Wind Direction,Wind SpeedMPH,Gust SpeedMPH,PrecipitationIn,Events,Conditions,WindDirDegrees,DateUTC
12:53 AM,64.0,35.1,34,29.81,10.0,SSW,3.5,-,N/A,,Clear,200,2012-10-11 07:53:00
1:53 AM,64.0,34.0,33,29.81,10.0,SSW,4.6,-,N/A,,Clear,210,2012-10-11 08:53:00
2:53 AM,63.0,35.1,35,29.81,10.0,SSW,5.8,-,N/A,,Clear,200,2012-10-11 09:53:00
3:53 AM,62.1,34.0,35,29.81,10.0,SW,4.6,-,N/A,,Clear,230,2012-10-11 10:53:00
4:53 AM,59.0,35.1,41,29.83,10.0,Calm,Calm,-,N/A,,Clear,0,2012-10-11 11:53:00
5:53 AM,57.9,35.1,42,29.86,10.0,Calm,Calm,-,N/A,,Clear,0,2012-10-11 12:53:00
6:53 AM,57.0,35.1,44,29.88,10.0,Calm,Calm,-,N/A,,Clear,0,2012-10-11 13:53:00
7:53 AM,63.0,35.1,35,29.89,10.0,Calm,Calm,-,N/A,,Clear,0,2012-10-11 14:53:00
8:53 AM,64.9,35.1,33,29.91,10.0,Calm,Calm,-,N/A,,Clear,0,2012-10-11 15:53:00
9:53 AM,68.0,35.1,30,29.89,10.0,Calm,Calm,-,N/A,,Clear,0,2012-10-11 16:53:00
10:53 AM,68.0,36.0,31,29.91,10.0,South,8.1,-,N/A,,Overcast,180,2012-10-11 17:53:00
11:53 AM,66.0,39.9,38,29.92,10.0,NW,3.5,-,0.00,Rain,Light Rain,310,2012-10-11 18:53:00
12:53 PM,64.4,42.8,45,30.04,10.0,NNW,8.1,-,N/A,,Overcast,330,2012-10-11 19:53:00
1:53 PM,69.1,41.0,36,29.86,10.0,North,8.1,-,0.01,,Partly Cloudy,360,2012-10-11 20:53:00
2:53 PM,69.8,41.0,35,29.99,10.0,North,6.9,-,N/A,,Scattered Clouds,360,2012-10-11 21:53:00
3:53 PM,70.0,41.0,35,29.81,10.0,NNW,6.9,-,N/A,,Partly Cloudy,340,2012-10-11 22:53:00
4:53 PM,71.1,39.9,32,29.78,10.0,Calm,Calm,-,N/A,,Clear,0,2012-10-11 23:53:00
5:53 PM,69.1,39.9,35,29.77,10.0,Calm,Calm,-,N/A,,Partly Cloudy,0,2012-10-12 00:53:00
6:53 PM,66.0,41.0,40,29.78,10.0,WSW,3.5,-,N/A,,Partly Cloudy,240,2012-10-12 01:53:00
7:53 PM,66.9,42.1,40,29.83,10.0,South,12.7,19.6,0.00,Rain,Light Rain,170,2012-10-12 02:53:00
8:53 PM,64.9,45.0,48,29.82,10.0,SW,4.6,-,0.00,,Mostly Cloudy,220,2012-10-12 03:53:00
9:53 PM,64.9,44.1,47,29.82,10.0,Calm,Calm,-,N/A,,Overcast,0,2012-10-12 04:53:00
10:53 PM,64.0,44.1,48,29.83,10.0,South,5.8,-,N/A,,Mostly Cloudy,180,2012-10-12 05:53:00
11:53 PM,62.1,46.9,58,29.83,10.0,ESE,5.8,-,0.00,,Overcast,120,2012-10-12 06:53:00